Time,TemperatureF,DewpointF,PressureIn,WindDirection,WindDirectionDegrees,WindSpeedMPH,WindSpeedGustMPH,Humidity,HourlyPrecipIn,Conditions,Clouds,dailyrainin,SoftwareType,DateUTC
2013-05-30 00:04:00,57.6,34.1,29.75,NW,307,0.0,0.0,41,0.00,,,0.00,Wunderground v.1.15,2013-05-30 07:04:00,
2013-05-30 00:09:00,57.2,34.3,29.75,West,278,0.0,0.0,42,0.00,,,0.00,Wunderground v.1.15,2013-05-30 07:09:00,
2013-05-30 00:14:00,57.1,34.2,29.75,WNW,294,0.0,0.0,42,0.00,,,0.00,Wunderground v.1.15,2013-05-30 07:14:00,
2013-05-30 00:20:00,57.3,34.4,29.75,WNW,295,0.0,0.0,42,0.00,,,0.00,Wunderground v.1.15,2013-05-30 07:20:00,
2013-05-30 00:25:00,57.8,34.2,29.75,WSW,255,0.0,0.0,41,0.00,,,0.00,Wunderground v.1.15,2013-05-30 07:25:00,
2013-05-30 00:31:00,58.0,34.4,29.75,NW,315,0.0,0.0,41,0.00,,,0.00,Wunderground v.1.15,2013-05-30 07:31:00,
2013-05-30 00:36:00,57.9,34.3,29.76,West,274,0.0,0.0,41,0.00,,,0.00,Wunderground v.1.15,2013-05-30 07:36:00,
2013-05-30 00:42:00,57.9,34.9,29.76,WSW,252,0.0,0.0,42,0.00,,,0.00,Wunderground v.1.15,2013-05-30 07:42:00,
2013-05-30 00:47:00,57.8,34.8,29.76,WSW,255,0.0,0.0,42,0.00,,,0.00,Wunderground v.1.15,2013-05-30 07:47:00,
2013-05-30 00:53:00,58.0,35.0,29.76,NW,321,0.0,0.0,42,0.00,,,0.00,Wunderground v.1.15,2013-05-30 07:53:00,
2013-05-30 00:59:00,57.7,34.7,29.76,NNE,15,0.0,0.0,42,0.00,,,0.00,Wunderground v.1.15,2013-05-30 07:59:00,
2013-05-30 01:04:00,56.5,34.8,29.76,NW,312,0.0,0.0,44,0.00,,,0.00,Wunderground v.1.15,2013-05-30 08:04:00,
2013-05-30 01:09:00,56.1,35.0,29.77,North,350,0.0,0.0,45,0.00,,,0.00,Wunderground v.1.15,2013-05-30 08:09:00,
2013-05-30 01:15:00,56.1,35.6,29.77,North,357,0.0,0.0,46,0.00,,,0.00,Wunderground v.1.15,2013-05-30 08:15:00,
2013-05-30 01:20:00,56.4,35.9,29.76,NW,326,0.0,0.0,46,0.00,,,0.00,Wunderground v.1.15,2013-05-30 08:20:00,
2013-05-30 01:26:00,56.9,36.3,29.77,West,274,0.0,0.0,46,0.00,,,0.00,Wunderground v.1.15,2013-05-30 08:26:00,
2013-05-30 01:31:00,56.5,36.0,29.77,NW,312,0.0,0.0,46,0.00,,,0.00,Wunderground v.1.15,2013-05-30 08:31:00,
2013-05-30 01:37:00,56.1,36.1,29.77,West,262,0.0,0.0,47,0.00,,,0.00,Wunderground v.1.15,2013-05-30 08:37:00,
2013-05-30 01:43:00,56.1,36.1,29.77,West,274,0.0,0.0,47,0.00,,,0.00,Wunderground v.1.15,2013-05-30 08:43:00,
2013-05-30 01:48:00,55.5,36.1,29.77,WNW,285,0.0,0.0,48,0.00,,,0.00,Wunderground v.1.15,2013-05-30 08:48:00,
2013-05-30 01:54:00,55.1,36.3,29.77,WNW,302,0.0,0.0,49,0.00,,,0.00,Wunderground v.1.15,2013-05-30 08:54:00,
2013-05-30 01:59:00,55.5,36.6,29.77,NW,309,0.0,0.0,49,0.00,,,0.00,Wunderground v.1.15,2013-05-30 08:59:00,
2013-05-30 02:05:00,55.7,36.3,29.77,WNW,297,0.0,0.0,48,0.00,,,0.00,Wunderground v.1.15,2013-05-30 09:05:00,
2013-05-30 02:11:00,55.4,36.0,29.77,NW,309,0.0,0.0,48,0.00,,,0.00,Wunderground v.1.15,2013-05-30 09:11:00,
2013-05-30 02:16:00,55.0,36.2,29.77,NW,305,0.0,0.0,49,0.00,,,0.00,Wunderground v.1.15,2013-05-30 09:16:00,
2013-05-30 02:21:00,54.6,35.8,29.77,West,263,0.0,0.0,49,0.00,,,0.00,Wunderground v.1.15,2013-05-30 09:21:00,
2013-05-30 02:27:00,54.9,36.6,29.78,WNW,298,0.0,0.0,50,0.00,,,0.00,Wunderground v.1.15,2013-05-30 09:27:00,
2013-05-30 02:33:00,55.2,36.9,29.78,West,266,0.0,0.0,50,0.00,,,0.00,Wunderground v.1.15,2013-05-30 09:33:00,
2013-05-30 02:38:00,55.4,36.5,29.78,West,265,0.0,0.0,49,0.00,,,0.00,Wunderground v.1.15,2013-05-30 09:38:00,
2013-05-30 02:44:00,55.1,36.8,29.78,West,276,0.0,0.0,50,0.00,,,0.00,Wunderground v.1.15,2013-05-30 09:44:00,
2013-05-30 02:49:00,54.7,36.4,29.78,WNW,293,0.0,0.0,50,0.00,,,0.00,Wunderground v.1.15,2013-05-30 09:49:00,
2013-05-30 02:55:00,54.3,36.5,29.78,WNW,290,0.0,0.0,51,0.00,,,0.00,Wunderground v.1.15,2013-05-30 09:55:00,
2013-05-30 03:00:00,54.1,36.4,29.78,WNW,285,0.0,0.0,51,0.00,,,0.00,Wunderground v.1.15,2013-05-30 10:00:00,
2013-05-30 03:06:00,53.6,36.4,29.78,WNW,283,0.0,0.0,52,0.00,,,0.00,Wunderground v.1.15,2013-05-30 10:06:00,
2013-05-30 03:12:00,53.1,36.4,29.78,West,271,0.0,0.0,53,0.00,,,0.00,Wunderground v.1.15,2013-05-30 10:12:00,
2013-05-30 03:17:00,52.6,36.4,29.78,West,274,0.0,0.0,54,0.00,,,0.00,Wunderground v.1.15,2013-05-30 10:17:00,
2013-05-30 03:23:00,52.3,37.1,29.78,WNW,297,0.0,0.0,56,0.00,,,0.00,Wunderground v.1.15,2013-05-30 10:23:00,
2013-05-30 03:28:00,52.2,37.0,29.78,West,281,0.0,1.0,56,0.00,,,0.00,Wunderground v.1.15,2013-05-30 10:28:00,
2013-05-30 03:34:00,52.0,37.2,29.78,WNW,285,0.0,0.0,57,0.00,,,0.00,Wunderground v.1.15,2013-05-30 10:34:00,
2013-05-30 03:40:00,51.8,37.5,29.78,WNW,283,0.0,0.0,58,0.00,,,0.00,Wunderground v.1.15,2013-05-30 10:40:00,
2013-05-30 03:45:00,52.1,38.2,29.78,WNW,289,0.0,0.0,59,0.00,,,0.00,Wunderground v.1.15,2013-05-30 10:45:00,
2013-05-30 03:51:00,51.8,37.0,29.79,West,270,0.0,2.0,57,0.00,,,0.00,Wunderground v.1.15,2013-05-30 10:51:00,
2013-05-30 03:56:00,51.5,37.2,29.79,WSW,253,0.0,2.0,58,0.00,,,0.00,Wunderground v.1.15,2013-05-30 10:56:00,
2013-05-30 04:02:00,51.5,37.2,29.79,West,280,0.0,0.0,58,0.00,,,0.00,Wunderground v.1.15,2013-05-30 11:02:00,
2013-05-30 04:08:00,51.7,37.4,29.79,West,262,0.0,1.0,58,0.00,,,0.00,Wunderground v.1.15,2013-05-30 11:08:00,
2013-05-30 04:13:00,51.3,37.0,29.79,WSW,249,0.0,0.0,58,0.00,,,0.00,Wunderground v.1.15,2013-05-30 11:13:00,
2013-05-30 04:19:00,50.5,36.7,29.80,WNW,288,0.0,0.0,59,0.00,,,0.00,Wunderground v.1.15,2013-05-30 11:19:00,
2013-05-30 04:24:00,49.9,37.0,29.80,WNW,288,0.0,0.0,61,0.00,,,0.00,Wunderground v.1.15,2013-05-30 11:24:00,
2013-05-30 04:30:00,49.9,37.4,29.80,WSW,257,0.0,0.0,62,0.00,,,0.00,Wunderground v.1.15,2013-05-30 11:30:00,
2013-05-30 04:35:00,50.2,37.3,29.80,WSW,257,0.0,0.0,61,0.00,,,0.00,Wunderground v.1.15,2013-05-30 11:35:00,
2013-05-30 04:41:00,50.2,37.3,29.80,WSW,257,0.0,0.0,61,0.00,,,0.00,Wunderground v.1.15,2013-05-30 11:41:00,
2013-05-30 04:46:00,49.8,36.9,29.80,WSW,256,0.0,0.0,61,0.00,,,0.00,Wunderground v.1.15,2013-05-30 11:46:00,
2013-05-30 04:52:00,49.2,36.3,29.80,WSW,256,0.0,0.0,61,0.00,,,0.00,Wunderground v.1.15,2013-05-30 11:52:00,
2013-05-30 04:57:00,48.7,36.3,29.80,WSW,257,0.0,0.0,62,0.00,,,0.00,Wunderground v.1.15,2013-05-30 11:57:00,
2013-05-30 05:03:00,48.7,36.7,29.80,West,275,0.0,2.0,63,0.00,,,0.00,Wunderground v.1.15,2013-05-30 12:03:00,
2013-05-30 05:09:00,48.9,36.4,29.80,WNW,293,0.0,2.0,62,0.00,,,0.00,Wunderground v.1.15,2013-05-30 12:09:00,
2013-05-30 05:14:00,49.3,36.8,29.81,NW,304,1.0,1.0,62,0.00,,,0.00,Wunderground v.1.15,2013-05-30 12:14:00,
2013-05-30 05:20:00,49.4,36.5,29.81,NW,309,1.0,1.0,61,0.00,,,0.00,Wunderground v.1.15,2013-05-30 12:20:00,
2013-05-30 05:25:00,49.4,36.1,29.81,West,278,1.0,1.0,60,0.00,,,0.00,Wunderground v.1.15,2013-05-30 12:25:00,
2013-05-30 05:31:00,48.9,35.6,29.81,WNW,289,1.0,1.0,60,0.00,,,0.00,Wunderground v.1.15,2013-05-30 12:31:00,
2013-05-30 05:37:00,48.7,35.8,29.81,WNW,292,1.0,2.0,61,0.00,,,0.00,Wunderground v.1.15,2013-05-30 12:37:00,
2013-05-30 05:42:00,48.9,36.0,29.81,West,277,1.0,3.0,61,0.00,,,0.00,Wunderground v.1.15,2013-05-30 12:42:00,
2013-05-30 05:48:00,49.1,36.2,29.81,West,276,1.0,3.0,61,0.00,,,0.00,Wunderground v.1.15,2013-05-30 12:48:00,
2013-05-30 05:53:00,49.5,35.8,29.81,West,275,0.0,1.0,59,0.00,,,0.00,Wunderground v.1.15,2013-05-30 12:53:00,
2013-05-30 05:59:00,49.9,36.1,29.82,West,269,0.0,2.0,59,0.00,,,0.00,Wunderground v.1.15,2013-05-30 12:59:00,
2013-05-30 06:05:00,50.1,35.9,29.82,West,262,1.0,2.0,58,0.00,,,0.00,Wunderground v.1.15,2013-05-30 13:05:00,
2013-05-30 06:10:00,50.4,36.2,29.82,WNW,294,0.0,0.0,58,0.00,,,0.00,Wunderground v.1.15,2013-05-30 13:10:00,
2013-05-30 06:16:00,50.9,36.2,29.82,WNW,285,0.0,0.0,57,0.00,,,0.00,Wunderground v.1.15,2013-05-30 13:16:00,
2013-05-30 06:21:00,51.3,36.1,29.83,NW,308,0.0,0.0,56,0.00,,,0.00,Wunderground v.1.15,2013-05-30 13:21:00,
2013-05-30 06:27:00,51.6,36.4,29.83,West,264,0.0,0.0,56,0.00,,,0.00,Wunderground v.1.15,2013-05-30 13:27:00,
2013-05-30 06:33:00,52.0,36.3,29.83,WNW,285,0.0,0.0,55,0.00,,,0.00,Wunderground v.1.15,2013-05-30 13:33:00,
2013-05-30 06:38:00,52.1,35.9,29.83,WNW,283,1.0,3.0,54,0.00,,,0.00,Wunderground v.1.15,2013-05-30 13:38:00,
2013-05-30 06:44:00,52.5,36.3,29.83,WNW,290,2.0,4.0,54,0.00,,,0.00,Wunderground v.1.15,2013-05-30 13:44:00,
2013-05-30 06:49:00,52.9,36.2,29.83,West,278,2.0,4.0,53,0.00,,,0.00,Wunderground v.1.15,2013-05-30 13:49:00,
2013-05-30 06:55:00,53.6,36.4,29.83,WNW,291,1.0,2.0,52,0.00,,,0.00,Wunderground v.1.15,2013-05-30 13:55:00,
2013-05-30 07:00:00,54.1,36.4,29.84,WNW,288,0.0,0.0,51,0.00,,,0.00,Wunderground v.1.15,2013-05-30 14:00:00,
2013-05-30 07:06:00,54.7,35.9,29.84,WNW,303,0.0,0.0,49,0.00,,,0.00,Wunderground v.1.15,2013-05-30 14:06:00,
2013-05-30 07:11:00,55.3,36.5,29.84,WNW,285,0.0,0.0,49,0.00,,,0.00,Wunderground v.1.15,2013-05-30 14:11:00,
2013-05-30 07:17:00,55.8,36.4,29.84,WNW,296,0.0,0.0,48,0.00,,,0.00,Wunderground v.1.15,2013-05-30 14:17:00,
2013-05-30 07:23:00,56.2,36.2,29.84,WNW,297,0.0,0.0,47,0.00,,,0.00,Wunderground v.1.15,2013-05-30 14:23:00,
2013-05-30 07:28:00,56.9,35.8,29.84,West,269,0.0,0.0,45,0.00,,,0.00,Wunderground v.1.15,2013-05-30 14:28:00,
2013-05-30 07:33:00,57.4,35.6,29.84,WNW,283,0.0,0.0,44,0.00,,,0.00,Wunderground v.1.15,2013-05-30 14:33:00,
2013-05-30 07:39:00,57.9,34.3,29.84,West,268,0.0,0.0,41,0.00,,,0.00,Wunderground v.1.15,2013-05-30 14:39:00,
2013-05-30 07:45:00,58.3,33.4,29.84,WSW,248,0.0,0.0,39,0.00,,,0.00,Wunderground v.1.15,2013-05-30 14:45:00,
2013-05-30 07:50:00,58.8,33.2,29.84,WNW,293,0.0,0.0,38,0.00,,,0.00,Wunderground v.1.15,2013-05-30 14:50:00,
2013-05-30 07:56:00,59.3,33.7,29.84,West,262,0.0,0.0,38,0.00,,,0.00,Wunderground v.1.15,2013-05-30 14:56:00,
2013-05-30 08:01:00,59.5,33.2,29.84,West,279,0.0,0.0,37,0.00,,,0.00,Wunderground v.1.15,2013-05-30 15:01:00,
2013-05-30 08:06:00,59.5,33.2,29.84,NW,315,0.0,0.0,37,0.00,,,0.00,Wunderground v.1.15,2013-05-30 15:06:00,
2013-05-30 08:12:00,59.6,33.3,29.84,NW,319,0.0,0.0,37,0.00,,,0.00,Wunderground v.1.15,2013-05-30 15:12:00,
2013-05-30 08:18:00,60.0,32.9,29.84,WNW,285,0.0,0.0,36,0.00,,,0.00,Wunderground v.1.15,2013-05-30 15:18:00,
2013-05-30 08:23:00,60.3,33.2,29.84,WSW,250,0.0,0.0,36,0.00,,,0.00,Wunderground v.1.15,2013-05-30 15:23:00,
2013-05-30 08:29:00,60.4,31.9,29.84,NW,316,0.0,0.0,34,0.00,,,0.00,Wunderground v.1.15,2013-05-30 15:29:00,
2013-05-30 08:35:00,60.5,32.7,29.84,NNW,334,0.0,0.0,35,0.00,,,0.00,Wunderground v.1.15,2013-05-30 15:35:00,
2013-05-30 08:40:00,61.2,32.6,29.84,NNW,338,0.0,0.0,34,0.00,,,0.00,Wunderground v.1.15,2013-05-30 15:40:00,
2013-05-30 08:45:00,61.2,32.6,29.84,NNE,28,0.0,0.0,34,0.00,,,0.00,Wunderground v.1.15,2013-05-30 15:45:00,
2013-05-30 08:51:00,61.2,32.6,29.84,NE,56,0.0,0.0,34,0.00,,,0.00,Wunderground v.1.15,2013-05-30 15:51:00,
2013-05-30 08:56:00,61.2,32.6,29.84,SE,143,0.0,0.0,34,0.00,,,0.00,Wunderground v.1.15,2013-05-30 15:56:00,
2013-05-30 09:02:00,61.8,33.1,29.84,SSW,193,0.0,0.0,34,0.00,,,0.00,Wunderground v.1.15,2013-05-30 16:02:00,
2013-05-30 09:08:00,62.4,32.9,29.83,SSE,156,0.0,0.0,33,0.00,,,0.00,Wunderground v.1.15,2013-05-30 16:08:00,
2013-05-30 09:13:00,63.4,33.0,29.83,ESE,107,0.0,0.0,32,0.00,,,0.00,Wunderground v.1.15,2013-05-30 16:13:00,
2013-05-30 09:19:00,64.3,32.2,29.83,SSE,160,0.0,0.0,30,0.00,,,0.00,Wunderground v.1.15,2013-05-30 16:19:00,
2013-05-30 09:24:00,63.9,31.8,29.83,West,266,0.0,0.0,30,0.00,,,0.00,Wunderground v.1.15,2013-05-30 16:24:00,
2013-05-30 09:30:00,63.5,32.3,29.83,WSW,245,0.0,0.0,31,0.00,,,0.00,Wunderground v.1.15,2013-05-30 16:30:00,
2013-05-30 09:36:00,63.5,31.5,29.83,East,90,0.0,0.0,30,0.00,,,0.00,Wunderground v.1.15,2013-05-30 16:36:00,
2013-05-30 09:41:00,62.9,31.8,29.83,ENE,68,0.0,0.0,31,0.00,,,0.00,Wunderground v.1.15,2013-05-30 16:41:00,
2013-05-30 09:47:00,63.4,32.2,29.83,SW,229,0.0,0.0,31,0.00,,,0.00,Wunderground v.1.15,2013-05-30 16:47:00,
2013-05-30 09:52:00,64.2,31.3,29.83,South,180,0.0,0.0,29,0.00,,,0.00,Wunderground v.1.15,2013-05-30 16:52:00,
2013-05-30 09:58:00,64.6,30.7,29.83,ESE,115,0.0,0.0,28,0.00,,,0.00,Wunderground v.1.15,2013-05-30 16:58:00,
2013-05-30 10:03:00,64.1,31.2,29.83,SSW,209,0.0,0.0,29,0.00,,,0.00,Wunderground v.1.15,2013-05-30 17:03:00,
2013-05-30 10:09:00,64.7,30.8,29.83,SW,232,0.0,0.0,28,0.00,,,0.00,Wunderground v.1.15,2013-05-30 17:09:00,
2013-05-30 10:14:00,65.2,31.2,29.83,South,186,0.0,0.0,28,0.00,,,0.00,Wunderground v.1.15,2013-05-30 17:14:00,
2013-05-30 10:20:00,65.3,30.4,29.83,SSW,203,0.0,0.0,27,0.00,,,0.00,Wunderground v.1.15,2013-05-30 17:20:00,
2013-05-30 10:25:00,65.5,29.7,29.83,WSW,252,0.0,0.0,26,0.00,,,0.00,Wunderground v.1.15,2013-05-30 17:25:00,
2013-05-30 10:31:00,65.1,30.3,29.82,SE,135,0.0,0.0,27,0.00,,,0.00,Wunderground v.1.15,2013-05-30 17:31:00,
2013-05-30 10:37:00,64.9,30.1,29.82,NNW,339,0.0,0.0,27,0.00,,,0.00,Wunderground v.1.15,2013-05-30 17:37:00,
2013-05-30 10:43:00,64.8,30.0,29.82,NNE,30,0.0,0.0,27,0.00,,,0.00,Wunderground v.1.15,2013-05-30 17:43:00,
2013-05-30 10:48:00,65.3,30.4,29.82,SE,141,0.0,0.0,27,0.00,,,0.00,Wunderground v.1.15,2013-05-30 17:48:00,
2013-05-30 10:54:00,66.9,29.9,29.82,SW,218,0.0,0.0,25,0.00,,,0.00,Wunderground v.1.15,2013-05-30 17:54:00,
2013-05-30 10:59:00,67.0,30.0,29.82,SSW,198,0.0,0.0,25,0.00,,,0.00,Wunderground v.1.15,2013-05-30 17:59:00,
2013-05-30 11:05:00,67.7,29.6,29.82,West,278,0.0,0.0,24,0.00,,,0.00,Wunderground v.1.15,2013-05-30 18:05:00,
2013-05-30 11:11:00,67.4,29.3,29.82,WSW,243,0.0,0.0,24,0.00,,,0.00,Wunderground v.1.15,2013-05-30 18:11:00,
2013-05-30 11:16:00,67.6,28.5,29.82,SE,127,0.0,0.0,23,0.00,,,0.00,Wunderground v.1.15,2013-05-30 18:16:00,
2013-05-30 11:22:00,67.5,28.4,29.82,NW,324,0.0,0.0,23,0.00,,,0.00,Wunderground v.1.15,2013-05-30 18:22:00,
2013-05-30 11:27:00,66.9,27.9,29.82,NW,323,0.0,0.0,23,0.00,,,0.00,Wunderground v.1.15,2013-05-30 18:27:00,
2013-05-30 11:33:00,68.1,26.7,29.82,SSW,198,0.0,0.0,21,0.00,,,0.00,Wunderground v.1.15,2013-05-30 18:33:00,
2013-05-30 11:39:00,67.9,24.1,29.82,NW,316,0.0,0.0,19,0.00,,,0.00,Wunderground v.1.15,2013-05-30 18:39:00,
2013-05-30 11:44:00,68.4,21.8,29.82,SW,236,0.0,0.0,17,0.00,,,0.00,Wunderground v.1.15,2013-05-30 18:44:00,
2013-05-30 11:50:00,69.5,24.1,29.81,SSE,152,0.0,0.0,18,0.00,,,0.00,Wunderground v.1.15,2013-05-30 18:50:00,
2013-05-30 11:55:00,70.1,24.6,29.81,SSW,209,0.0,0.0,18,0.00,,,0.00,Wunderground v.1.15,2013-05-30 18:55:00,
2013-05-30 12:00:00,70.0,23.1,29.81,West,259,0.0,0.0,17,0.00,,,0.00,Wunderground v.1.15,2013-05-30 19:00:00,
2013-05-30 12:05:00,69.5,24.1,29.81,SSW,206,0.0,0.0,18,0.00,,,0.00,Wunderground v.1.15,2013-05-30 19:05:00,
2013-05-30 12:11:00,69.3,23.9,29.81,NE,39,0.0,0.0,18,0.00,,,0.00,Wunderground v.1.15,2013-05-30 19:11:00,
2013-05-30 12:17:00,69.0,23.7,29.81,West,260,0.0,0.0,18,0.00,,,0.00,Wunderground v.1.15,2013-05-30 19:17:00,
2013-05-30 12:22:00,69.5,24.1,29.80,NW,319,0.0,0.0,18,0.00,,,0.00,Wunderground v.1.15,2013-05-30 19:22:00,
2013-05-30 12:28:00,70.3,23.4,29.80,NE,34,0.0,0.0,17,0.00,,,0.00,Wunderground v.1.15,2013-05-30 19:28:00,
2013-05-30 12:34:00,71.4,24.3,29.79,NE,41,0.0,0.0,17,0.00,,,0.00,Wunderground v.1.15,2013-05-30 19:34:00,
2013-05-30 12:39:00,71.4,24.3,29.79,East,89,0.0,0.0,17,0.00,,,0.00,Wunderground v.1.15,2013-05-30 19:39:00,
2013-05-30 12:44:00,71.2,24.1,29.79,SSE,158,0.0,0.0,17,0.00,,,0.00,Wunderground v.1.15,2013-05-30 19:44:00,
2013-05-30 12:50:00,71.1,24.0,29.79,West,270,0.0,0.0,17,0.00,,,0.00,Wunderground v.1.15,2013-05-30 19:50:00,
2013-05-30 12:56:00,71.9,23.2,29.79,SW,219,0.0,0.0,16,0.00,,,0.00,Wunderground v.1.15,2013-05-30 19:56:00,
2013-05-30 13:01:00,72.4,23.6,29.79,WSW,247,0.0,0.0,16,0.00,,,0.00,Wunderground v.1.15,2013-05-30 20:01:00,
2013-05-30 13:07:00,72.7,22.3,29.78,ESE,112,0.0,0.0,15,0.00,,,0.00,Wunderground v.1.15,2013-05-30 20:07:00,
2013-05-30 13:12:00,72.4,22.1,29.78,SSE,154,0.0,0.0,15,0.00,,,0.00,Wunderground v.1.15,2013-05-30 20:12:00,
2013-05-30 13:18:00,72.2,21.9,29.78,ENE,63,0.0,0.0,15,0.00,,,0.00,Wunderground v.1.15,2013-05-30 20:18:00,
2013-05-30 13:24:00,72.7,22.3,29.78,SW,224,0.0,0.0,15,0.00,,,0.00,Wunderground v.1.15,2013-05-30 20:24:00,
2013-05-30 13:29:00,73.4,22.9,29.78,NW,321,0.0,0.0,15,0.00,,,0.00,Wunderground v.1.15,2013-05-30 20:29:00,
2013-05-30 13:35:00,72.9,24.0,29.78,West,278,0.0,0.0,16,0.00,,,0.00,Wunderground v.1.15,2013-05-30 20:35:00,
2013-05-30 13:41:00,73.5,23.0,29.78,North,8,0.0,0.0,15,0.00,,,0.00,Wunderground v.1.15,2013-05-30 20:41:00,
2013-05-30 13:46:00,73.0,22.6,29.77,NE,34,0.0,0.0,15,0.00,,,0.00,Wunderground v.1.15,2013-05-30 20:46:00,
2013-05-30 13:52:00,73.0,22.6,29.77,SSW,206,0.0,0.0,15,0.00,,,0.00,Wunderground v.1.15,2013-05-30 20:52:00,
2013-05-30 13:57:00,73.7,21.5,29.77,West,260,0.0,0.0,14,0.00,,,0.00,Wunderground v.1.15,2013-05-30 20:57:00,
2013-05-30 14:03:00,73.7,21.5,29.77,WNW,301,0.0,0.0,14,0.00,,,0.00,Wunderground v.1.15,2013-05-30 21:03:00,
2013-05-30 14:09:00,73.6,21.4,29.77,NNW,333,0.0,0.0,14,0.00,,,0.00,Wunderground v.1.15,2013-05-30 21:09:00,
2013-05-30 14:14:00,74.7,22.3,29.76,SSW,202,0.0,0.0,14,0.00,,,0.00,Wunderground v.1.15,2013-05-30 21:14:00,
2013-05-30 14:20:00,75.1,22.6,29.76,NNW,328,0.0,0.0,14,0.00,,,0.00,Wunderground v.1.15,2013-05-30 21:20:00,
2013-05-30 14:25:00,74.8,22.4,29.76,NW,318,0.0,0.0,14,0.00,,,0.00,Wunderground v.1.15,2013-05-30 21:25:00,
2013-05-30 14:31:00,75.6,21.2,29.76,NW,308,0.0,0.0,13,0.00,,,0.00,Wunderground v.1.15,2013-05-30 21:31:00,
2013-05-30 14:37:00,74.4,20.3,29.76,NNE,31,0.0,0.0,13,0.00,,,0.00,Wunderground v.1.15,2013-05-30 21:37:00,
2013-05-30 14:42:00,74.0,20.0,29.76,WNW,285,0.0,0.0,13,0.00,,,0.00,Wunderground v.1.15,2013-05-30 21:42:00,
2013-05-30 14:47:00,74.9,20.7,29.76,ENE,63,0.0,0.0,13,0.00,,,0.00,Wunderground v.1.15,2013-05-30 21:47:00,
2013-05-30 14:53:00,74.9,20.7,29.76,WSW,245,0.0,0.0,13,0.00,,,0.00,Wunderground v.1.15,2013-05-30 21:53:00,
2013-05-30 14:58:00,75.4,21.1,29.75,SW,234,0.0,0.0,13,0.00,,,0.00,Wunderground v.1.15,2013-05-30 21:58:00,
2013-05-30 15:04:00,76.2,19.8,29.75,South,184,0.0,0.0,12,0.00,,,0.00,Wunderground v.1.15,2013-05-30 22:04:00,
2013-05-30 15:10:00,76.2,19.8,29.75,SE,134,0.0,0.0,12,0.00,,,0.00,Wunderground v.1.15,2013-05-30 22:10:00,
2013-05-30 15:15:00,76.2,19.8,29.75,South,170,0.0,0.0,12,0.00,,,0.00,Wunderground v.1.15,2013-05-30 22:15:00,
2013-05-30 15:21:00,76.4,20.0,29.75,SW,217,0.0,0.0,12,0.00,,,0.00,Wunderground v.1.15,2013-05-30 22:21:00,
2013-05-30 15:27:00,76.9,20.4,29.74,ENE,66,0.0,0.0,12,0.00,,,0.00,Wunderground v.1.15,2013-05-30 22:27:00,
2013-05-30 15:32:00,76.9,18.3,29.74,NE,44,0.0,0.0,11,0.00,,,0.00,Wunderground v.1.15,2013-05-30 22:32:00,
2013-05-30 15:37:00,77.0,18.4,29.74,ESE,107,0.0,0.0,11,0.00,,,0.00,Wunderground v.1.15,2013-05-30 22:37:00,
2013-05-30 15:43:00,77.5,18.8,29.74,East,85,0.0,0.0,11,0.00,,,0.00,Wunderground v.1.15,2013-05-30 22:43:00,
2013-05-30 15:49:00,77.0,18.4,29.73,ENE,72,0.0,0.0,11,0.00,,,0.00,Wunderground v.1.15,2013-05-30 22:49:00,
2013-05-30 15:54:00,77.3,18.7,29.73,NNE,28,0.0,0.0,11,0.00,,,0.00,Wunderground v.1.15,2013-05-30 22:54:00,
2013-05-30 16:00:00,76.9,18.3,29.73,ENE,62,0.0,0.0,11,0.00,,,0.00,Wunderground v.1.15,2013-05-30 23:00:00,
2013-05-30 16:06:00,77.4,18.7,29.73,North,356,0.0,0.0,11,0.00,,,0.00,Wunderground v.1.15,2013-05-30 23:06:00,
2013-05-30 16:11:00,77.0,18.4,29.73,WNW,291,0.0,0.0,11,0.00,,,0.00,Wunderground v.1.15,2013-05-30 23:11:00,
2013-05-30 16:16:00,77.2,20.6,29.73,NE,45,0.0,0.0,12,0.00,,,0.00,Wunderground v.1.15,2013-05-30 23:16:00,
2013-05-30 16:22:00,77.0,20.5,29.73,East,93,0.0,0.0,12,0.00,,,0.00,Wunderground v.1.15,2013-05-30 23:22:00,
2013-05-30 16:27:00,77.7,22.9,29.72,NW,309,0.0,0.0,13,0.00,,,0.00,Wunderground v.1.15,2013-05-30 23:27:00,
2013-05-30 16:33:00,79.3,22.2,29.73,WSW,256,0.0,0.0,12,0.00,,,0.00,Wunderground v.1.15,2013-05-30 23:33:00,
2013-05-30 16:39:00,79.2,22.2,29.72,WNW,285,0.0,0.0,12,0.00,,,0.00,Wunderground v.1.15,2013-05-30 23:39:00,
2013-05-30 16:44:00,78.9,21.9,29.72,West,279,0.0,0.0,12,0.00,,,0.00,Wunderground v.1.15,2013-05-30 23:44:00,
2013-05-30 16:50:00,79.3,22.2,29.72,West,271,0.0,0.0,12,0.00,,,0.00,Wunderground v.1.15,2013-05-30 23:50:00,
2013-05-30 16:55:00,79.0,22.0,29.73,WNW,291,0.0,0.0,12,0.00,,,0.00,Wunderground v.1.15,2013-05-30 23:55:00,
2013-05-30 17:00:00,78.8,21.9,29.72,West,278,0.0,0.0,12,0.00,,,0.00,Wunderground v.1.15,2013-05-31 00:00:00,
2013-05-30 17:06:00,79.0,22.0,29.72,WNW,297,0.0,0.0,12,0.00,,,0.00,Wunderground v.1.15,2013-05-31 00:06:00,
2013-05-30 17:12:00,79.0,22.0,29.72,SW,217,0.0,0.0,12,0.00,,,0.00,Wunderground v.1.15,2013-05-31 00:12:00,
2013-05-30 17:17:00,79.2,20.1,29.72,WNW,296,0.0,0.0,11,0.00,,,0.00,Wunderground v.1.15,2013-05-31 00:17:00,
2013-05-30 17:23:00,79.2,20.1,29.72,WSW,257,0.0,0.0,11,0.00,,,0.00,Wunderground v.1.15,2013-05-31 00:23:00,
2013-05-30 17:28:00,79.1,20.0,29.72,WNW,287,0.0,0.0,11,0.00,,,0.00,Wunderground v.1.15,2013-05-31 00:28:00,
2013-05-30 17:34:00,79.3,20.2,29.72,NW,315,0.0,0.0,11,0.00,,,0.00,Wunderground v.1.15,2013-05-31 00:34:00,
2013-05-30 17:40:00,78.5,21.6,29.72,WNW,297,0.0,0.0,12,0.00,,,0.00,Wunderground v.1.15,2013-05-31 00:40:00,
2013-05-30 17:45:00,78.8,21.9,29.72,WSW,255,0.0,0.0,12,0.00,,,0.00,Wunderground v.1.15,2013-05-31 00:45:00,
2013-05-30 17:51:00,78.2,21.4,29.72,WNW,285,0.0,0.0,12,0.00,,,0.00,Wunderground v.1.15,2013-05-31 00:51:00,
2013-05-30 17:56:00,78.0,21.2,29.72,WNW,297,0.0,0.0,12,0.00,,,0.00,Wunderground v.1.15,2013-05-31 00:56:00,
2013-05-30 18:02:00,78.1,21.3,29.72,NW,307,0.0,0.0,12,0.00,,,0.00,Wunderground v.1.15,2013-05-31 01:02:00,
2013-05-30 18:08:00,78.1,21.3,29.72,WSW,246,0.0,0.0,12,0.00,,,0.00,Wunderground v.1.15,2013-05-31 01:08:00,
2013-05-30 18:14:00,78.1,21.3,29.72,SW,223,0.0,0.0,12,0.00,,,0.00,Wunderground v.1.15,2013-05-31 01:14:00,
2013-05-30 18:19:00,78.0,21.2,29.72,WNW,295,0.0,0.0,12,0.00,,,0.00,Wunderground v.1.15,2013-05-31 01:19:00,
2013-05-30 18:25:00,77.8,21.1,29.73,WNW,294,0.0,0.0,12,0.00,,,0.00,Wunderground v.1.15,2013-05-31 01:25:00,
2013-05-30 18:30:00,77.8,21.1,29.73,West,277,0.0,0.0,12,0.00,,,0.00,Wunderground v.1.15,2013-05-31 01:30:00,
2013-05-30 18:36:00,77.8,21.1,29.73,SW,226,0.0,0.0,12,0.00,,,0.00,Wunderground v.1.15,2013-05-31 01:36:00,
2013-05-30 18:42:00,77.7,19.0,29.73,NNW,332,0.0,0.0,11,0.00,,,0.00,Wunderground v.1.15,2013-05-31 01:42:00,
2013-05-30 18:47:00,77.7,19.0,29.73,West,274,0.0,0.0,11,0.00,,,0.00,Wunderground v.1.15,2013-05-31 01:47:00,
2013-05-30 18:53:00,77.5,18.8,29.74,WNW,293,0.0,0.0,11,0.00,,,0.00,Wunderground v.1.15,2013-05-31 01:53:00,
2013-05-30 18:59:00,77.1,16.3,29.73,WNW,295,0.0,0.0,10,0.00,,,0.00,Wunderground v.1.15,2013-05-31 01:59:00,
2013-05-30 19:04:00,77.3,18.7,29.73,NW,309,0.0,0.0,11,0.00,,,0.00,Wunderground v.1.15,2013-05-31 02:04:00,
2013-05-30 19:09:00,76.9,18.3,29.74,NW,311,0.0,0.0,11,0.00,,,0.00,Wunderground v.1.15,2013-05-31 02:09:00,
2013-05-30 19:15:00,76.6,20.1,29.74,WNW,292,0.0,0.0,12,0.00,,,0.00,Wunderground v.1.15,2013-05-31 02:15:00,
2013-05-30 19:21:00,76.4,21.9,29.74,West,268,0.0,0.0,13,0.00,,,0.00,Wunderground v.1.15,2013-05-31 02:21:00,
2013-05-30 19:26:00,76.1,23.4,29.75,NW,314,0.0,0.0,14,0.00,,,0.00,Wunderground v.1.15,2013-05-31 02:26:00,
2013-05-30 19:32:00,75.8,23.2,29.75,WNW,292,0.0,0.0,14,0.00,,,0.00,Wunderground v.1.15,2013-05-31 02:32:00,
2013-05-30 19:38:00,75.6,26.2,29.75,West,277,0.0,0.0,16,0.00,,,0.00,Wunderground v.1.15,2013-05-31 02:38:00,
2013-05-30 19:43:00,74.9,27.1,29.75,WNW,288,0.0,0.0,17,0.00,,,0.00,Wunderground v.1.15,2013-05-31 02:43:00,
2013-05-30 19:49:00,74.3,26.6,29.75,WNW,284,0.0,0.0,17,0.00,,,0.00,Wunderground v.1.15,2013-05-31 02:49:00,
2013-05-30 19:54:00,73.8,27.6,29.75,WNW,303,0.0,0.0,18,0.00,,,0.00,Wunderground v.1.15,2013-05-31 02:54:00,
2013-05-30 20:00:00,73.3,27.2,29.76,WNW,288,0.0,0.0,18,0.00,,,0.00,Wunderground v.1.15,2013-05-31 03:00:00,
2013-05-30 20:06:00,72.9,26.9,29.76,West,281,0.0,0.0,18,0.00,,,0.00,Wunderground v.1.15,2013-05-31 03:06:00,
2013-05-30 20:11:00,72.5,26.5,29.76,NNW,328,0.0,0.0,18,0.00,,,0.00,Wunderground v.1.15,2013-05-31 03:11:00,
2013-05-30 20:16:00,72.1,27.5,29.76,West,267,0.0,0.0,19,0.00,,,0.00,Wunderground v.1.15,2013-05-31 03:16:00,
2013-05-30 20:22:00,71.6,27.1,29.76,WNW,288,0.0,0.0,19,0.00,,,0.00,Wunderground v.1.15,2013-05-31 03:22:00,
2013-05-30 20:28:00,71.1,26.7,29.76,WSW,252,0.0,0.0,19,0.00,,,0.00,Wunderground v.1.15,2013-05-31 03:28:00,
2013-05-30 20:33:00,70.7,27.6,29.77,WNW,282,0.0,0.0,20,0.00,,,0.00,Wunderground v.1.15,2013-05-31 03:33:00,
2013-05-30 20:38:00,70.4,27.4,29.77,NW,320,0.0,0.0,20,0.00,,,0.00,Wunderground v.1.15,2013-05-31 03:38:00,
2013-05-30 20:43:00,70.1,27.1,29.77,WSW,257,0.0,0.0,20,0.00,,,0.00,Wunderground v.1.15,2013-05-31 03:43:00,
2013-05-30 20:49:00,69.9,28.2,29.78,NNW,333,0.0,0.0,21,0.00,,,0.00,Wunderground v.1.15,2013-05-31 03:49:00,
2013-05-30 20:55:00,69.4,27.7,29.78,West,262,0.0,0.0,21,0.00,,,0.00,Wunderground v.1.15,2013-05-31 03:55:00,
2013-05-30 21:00:00,68.9,27.3,29.79,West,278,0.0,0.0,21,0.00,,,0.00,Wunderground v.1.15,2013-05-31 04:00:00,
2013-05-30 21:01:00,68.9,27.3,29.79,NW,321,0.0,0.0,21,0.00,,,0.00,Wunderground v.1.15,2013-05-31 04:01:00,
2013-05-30 21:02:00,68.9,27.3,29.79,West,281,0.0,0.0,21,0.00,,,0.00,Wunderground v.1.15,2013-05-31 04:02:00,
2013-05-30 21:03:00,68.9,27.3,29.79,West,276,0.0,0.0,21,0.00,,,0.00,Wunderground v.1.15,2013-05-31 04:03:00,
2013-05-30 21:07:00,68.8,27.2,29.80,NW,311,0.0,0.0,21,0.00,,,0.00,Wunderground v.1.15,2013-05-31 04:07:00,
2013-05-30 21:08:00,68.8,28.4,29.80,NW,305,0.0,0.0,22,0.00,,,0.00,Wunderground v.1.15,2013-05-31 04:08:00,
2013-05-30 21:14:00,68.9,27.3,29.81,WNW,295,0.0,0.0,21,0.00,,,0.00,Wunderground v.1.15,2013-05-31 04:14:00,
2013-05-30 21:20:00,68.8,27.2,29.81,West,264,0.0,0.0,21,0.00,,,0.00,Wunderground v.1.15,2013-05-31 04:20:00,
2013-05-30 21:26:00,68.7,28.3,29.81,NW,318,0.0,0.0,22,0.00,,,0.00,Wunderground v.1.15,2013-05-31 04:26:00,
2013-05-30 21:31:00,68.4,28.0,29.81,WNW,291,0.0,0.0,22,0.00,,,0.00,Wunderground v.1.15,2013-05-31 04:31:00,
2013-05-30 21:37:00,68.0,27.7,29.82,West,259,0.0,0.0,22,0.00,,,0.00,Wunderground v.1.15,2013-05-31 04:37:00,
2013-05-30 21:43:00,67.6,28.5,29.82,SW,229,0.0,0.0,23,0.00,,,0.00,Wunderground v.1.15,2013-05-31 04:43:00,
2013-05-30 21:49:00,67.3,28.2,29.82,WNW,285,0.0,0.0,23,0.00,,,0.00,Wunderground v.1.15,2013-05-31 04:49:00,
2013-05-30 21:55:00,67.3,29.2,29.83,WNW,297,0.0,0.0,24,0.00,,,0.00,Wunderground v.1.15,2013-05-31 04:55:00,
2013-05-30 22:00:00,67.1,29.1,29.83,NW,319,0.0,0.0,24,0.00,,,0.00,Wunderground v.1.15,2013-05-31 05:00:00,
2013-05-30 22:06:00,66.9,28.9,29.83,NW,325,0.0,0.0,24,0.00,,,0.00,Wunderground v.1.15,2013-05-31 05:06:00,
2013-05-30 22:12:00,66.7,28.7,29.83,WNW,291,0.0,0.0,24,0.00,,,0.00,Wunderground v.1.15,2013-05-31 05:12:00,
2013-05-30 22:18:00,66.3,29.4,29.83,WNW,300,0.0,0.0,25,0.00,,,0.00,Wunderground v.1.15,2013-05-31 05:18:00,
2013-05-30 22:24:00,65.9,29.1,29.83,West,272,0.0,0.0,25,0.00,,,0.00,Wunderground v.1.15,2013-05-31 05:24:00,
2013-05-30 22:29:00,65.6,29.8,29.83,WNW,298,0.0,0.0,26,0.00,,,0.00,Wunderground v.1.15,2013-05-31 05:29:00,
2013-05-30 22:35:00,65.5,28.7,29.84,West,273,0.0,4.0,25,0.00,,,0.00,Wunderground v.1.15,2013-05-31 05:35:00,
2013-05-30 22:40:00,65.4,28.6,29.84,WNW,283,1.0,1.0,25,0.00,,,0.00,Wunderground v.1.15,2013-05-31 05:40:00,
2013-05-30 22:46:00,64.8,29.1,29.84,WNW,295,0.0,1.0,26,0.00,,,0.00,Wunderground v.1.15,2013-05-31 05:46:00,
2013-05-30 22:51:00,64.1,28.5,29.85,WNW,300,0.0,0.0,26,0.00,,,0.00,Wunderground v.1.15,2013-05-31 05:51:00,
2013-05-30 22:57:00,63.7,29.1,29.85,NW,321,0.0,0.0,27,0.00,,,0.00,Wunderground v.1.15,2013-05-31 05:57:00,
2013-05-30 23:03:00,63.3,29.6,29.85,West,274,0.0,0.0,28,0.00,,,0.00,Wunderground v.1.15,2013-05-31 06:03:00,
2013-05-30 23:09:00,63.1,29.4,29.85,West,271,0.0,0.0,28,0.00,,,0.00,Wunderground v.1.15,2013-05-31 06:09:00,
2013-05-30 23:15:00,62.8,29.2,29.85,WNW,300,0.0,0.0,28,0.00,,,0.00,Wunderground v.1.15,2013-05-31 06:15:00,
2013-05-30 23:20:00,63.1,29.4,29.85,West,274,0.0,0.0,28,0.00,,,0.00,Wunderground v.1.15,2013-05-31 06:20:00,
2013-05-30 23:26:00,63.0,29.4,29.86,NW,304,0.0,0.0,28,0.00,,,0.00,Wunderground v.1.15,2013-05-31 06:26:00,
2013-05-30 23:31:00,62.7,29.1,29.86,NW,307,0.0,0.0,28,0.00,,,0.00,Wunderground v.1.15,2013-05-31 06:31:00,
2013-05-30 23:37:00,62.0,28.5,29.87,NNW,338,1.0,5.0,28,0.00,,,0.00,Wunderground v.1.15,2013-05-31 06:37:00,
2013-05-30 23:43:00,62.2,26.9,29.87,NW,326,3.0,9.0,26,0.00,,,0.00,Wunderground v.1.15,2013-05-31 06:43:00,
2013-05-30 23:48:00,61.8,26.5,29.87,NW,325,2.0,9.0,26,0.00,,,0.00,Wunderground v.1.15,2013-05-31 06:48:00,
2013-05-30 23:54:00,61.3,26.1,29.88,NNW,335,0.0,1.0,26,0.00,,,0.00,Wunderground v.1.15,2013-05-31 06:54:00,